Find Starlink 4480

NORAD ID: 53416 Int'l Des: 2022-097 Owner: SPXS Country: US Constellation: starlink operational
LEOCIRCULAR

实时位置

正在加载3D地球...

关于 Starlink 4480

正在加载描述...

即将过境

Passes for default location (London). Set your location on the main map for personalized predictions.

高度历史

Loading altitude history...

两行轨道根数

1 53416U 22097AE 26105.77093986 .00000439 00000-0 45644-4 0 9995
2 53416 53.2162 307.6056 0001096 55.9288 304.1808 15.08843547204229
Epoch: Apr 15, 2026 • Age: 22 hours

当前状态

高度 551.1 km
速度 7.59 km/s
星下点 -35.03°S, 178.86°E
发射日期 Aug 10, 2022
运行时间 3.6 years
类型 internet

技术详情

分类 Payload
质量 297.00 kg
干质量 275.00 kg
总质量 297.00 kg
长度 0.20 m
直径 2.80 m
跨度 9.00 m
形状 Box + pan
制造商 SPXS
平台类型 Starlink
阶段状态 In Orbit
所有者/国家 SPXS/US

Most Searched